Flag for Canada Weather past 2 weeks in Aklavik, Northwest Territories, Canada

Now
41 °F

More clouds than sun.


Feels Like: 38 °F
Forecast: 40 / 44 °F
Wind: 5 mph from Northeast

Location: Inuvik

Current Time: Sep 18, 2014 at 10:23:04 PM

Latest Report: Sep 18, 2014 at 10:00 PM


Visibility: 15 mi

Pressure: 29.49 "Hg

Humidity: 87%

Dew point: 37 °F

Location of AklavikLocation

Historic Weather in Aklavik — Graph

°F

Aklavik temperature yesterday

Maximum temperature yesterday: 43 °F (at 12:00 AM)
Minimum temperature yesterday: 39 °F (at 8:00 AM)
Average temperature yesterday: 41 °F

Past Weeks' High & Low Weather Summary

 TemperatureHumidityPressure
High57 °F (Sep 9, 5:00 PM)100% (Sep 4, 11:00 PM)30.37 "Hg (Sep 4, 11:00 PM)
Low27 °F (Sep 12, 4:00 AM)25% (Sep 9, 8:00 PM)29.45 "Hg (Sep 17, 7:00 AM)
Average40 °F75%29.98 "Hg
* Reported Sep 3 9:00 PM — Sep 18 9:00 PM, Aklavik, Weather by CustomWeather, © 2014

Note: Actual official high and low records may vary slightly from our data, if they occured in-between our weather recording intervals... More about our weather records

Advertising

Aklavik weather history for previous 24 hours

 ConditionsComfort  
Time TempWeatherWind HumidityBarometerVisibility
9:00 PM
Sep 18
41 °FMore clouds than sun.3 mph93%29.48 "Hg15 mi
8:00 PM43 °FMostly cloudy.7 mph87%29.48 "Hg15 mi
7:00 PM43 °FMostly cloudy.3 mph93%29.49 "Hg15 mi
6:00 PM43 °FOvercast.No wind87%29.49 "Hg15 mi
5:00 PM43 °FMostly cloudy.No wind87%29.49 "Hg15 mi
4:00 PM43 °FMostly cloudy.2 mph93%29.49 "Hg15 mi
3:00 PM43 °FMostly cloudy.3 mph93%29.50 "Hg15 mi
2:00 PM41 °FFog.3 mph100%29.50 "Hg15 mi
1:00 PM41 °FFog.No wind100%29.50 "Hg15 mi
12:00 PM41 °FDrizzle. Fog.No wind93%29.51 "Hg5 mi
11:00 AM39 °FDrizzle. Fog.No wind100%29.50 "Hg2 mi
10:00 AM39 °FDrizzle. Fog.2 mph100%29.50 "Hg0 mi
9:00 AM39 °FDrizzle. Fog.3 mph100%29.50 "Hg1 mi
8:00 AM39 °FDrizzle. Fog.2 mph100%29.50 "Hg0 mi
7:00 AM39 °FDrizzle. Fog.5 mph100%29.50 "Hg0 mi
6:00 AM39 °FDrizzle. Fog.2 mph100%29.51 "Hg0 mi
5:00 AM39 °FDrizzle. Fog.2 mph100%29.51 "Hg0 mi
4:00 AM39 °FDrizzle. Fog.2 mph100%29.51 "Hg0 mi
3:00 AM39 °FDrizzle. Fog.5 mph100%29.51 "Hg1 mi
2:00 AM39 °FDense fog.5 mph100%29.52 "Hg1 mi
1:00 AM39 °FDrizzle. Fog.5 mph100%29.52 "Hg1 mi
12:00 AM41 °FDrizzle. Fog.5 mph93%29.51 "Hg2 mi
11:00 PM
Sep 17
41 °FDrizzle. Fog.5 mph93%29.51 "Hg1 mi
10:00 PM41 °FDense fog.6 mph93%29.51 "Hg1 mi
Weather by CustomWeather, © 2014

See weather overviewHow to use our weather pages